Location: Go�ngahuizen
(53.0821°N, 5.8849°E)
Time: 18:40:17
(UTC+00:00)

Nadezhda 1 Rocket - Pass Details

Date: 09 April 2020
Orbit: 940 x 1006 km, 83.0° (Epoch: 02 June)

Event Time Altitude Azimuth Distance (km) Brightness Sun altitude
Rises 19:18:06 0° 183° (S) 3,721 6.8 -8.1°
Reaches altitude 10° 19:20:37 10° 183° (S) 2,772 6.2 -8.5°
Maximum altitude 19:27:00 80° 97° (E) 1,019 4.0 -9.3°
Drops below altitude 10° 19:33:20 10° 12° (NNE) 2,758 6.6 -10.2°
Sets 19:35:51 0° 12° (NNE) 3,701 7.3 -10.5°
